Location: Cahoon Acres
(40.8736°N, 111.8994°W)
Time: 05:29:50
(UTC+00:00)

Courier 1B Rocket - All Passes

Search period start: 06 June 2020 00:00
Search period end: 16 June 2020 00:00
Orbit: 920 x 1202 km, 28.2° (Epoch: 05 June)

Date Brightness Start Highest point End Pass type
(mag) Time Alt. Az. Time Alt. Az. Time Alt. Az.
06 Jun - 11:37:25 10° SSW 11:42:06 17° SSE 11:46:41 10° ESE daylight
06 Jun - 13:28:38 10° SW 13:34:51 28° S 13:40:46 10° ESE daylight
06 Jun - 15:21:38 10° WSW 15:27:39 28° S 15:33:22 10° SE daylight
06 Jun - 17:15:58 10° WSW 17:20:11 17° SSW 17:24:15 10° SSE daylight
07 Jun - 10:37:53 10° S 10:41:13 13° SSE 10:44:30 10° SE visible
07 Jun - 12:27:50 10° SW 12:33:54 26° SSE 12:39:44 10° ESE daylight
07 Jun - 14:20:24 10° WSW 14:26:44 30° S 14:32:45 10° SE daylight
07 Jun - 16:14:12 10° WSW 16:19:25 22° SSW 16:24:25 10° SSE daylight
08 Jun - 11:27:16 10° SSW 11:32:57 22° SSE 11:38:28 10° ESE daylight
08 Jun - 13:19:18 10° SW 13:25:47 30° S 13:31:58 10° ESE daylight
08 Jun - 15:12:41 10° WSW 15:18:35 26° SSW 15:24:11 10° SE daylight
08 Jun - 17:08:05 10° SW 17:11:03 13° SSW 17:13:55 10° S daylight
09 Jun - 10:27:04 10° SSW 10:32:00 18° SSE 10:36:53 10° ESE visible
09 Jun - 12:18:19 10° SW 12:24:47 29° S 12:31:02 10° ESE daylight
09 Jun - 14:11:20 10° WSW 14:17:40 29° S 14:23:42 10° SE daylight
09 Jun - 16:05:41 10° WSW 16:10:17 18° SSW 16:14:43 10° SSE daylight
10 Jun - 09:27:32 10° S 09:31:06 14° SSE 09:34:40 10° SE visible
10 Jun - 11:17:33 10° SW 11:23:47 26° SSE 11:29:54 10° ESE visible
10 Jun - 13:10:06 10° WSW 13:16:42 31° S 13:23:02 10° ESE daylight
10 Jun - 15:03:54 10° WSW 15:09:28 23° SSW 15:14:48 10° SSE daylight
11 Jun - 10:17:02 10° SSW 10:22:49 23° SSE 10:28:33 10° ESE visible
11 Jun - 12:09:01 10° SW 12:15:41 31° S 12:22:10 10° ESE daylight
11 Jun - 14:02:23 10° WSW 14:08:34 27° SSW 14:14:29 10° SE daylight
11 Jun - 15:57:41 10° SW 16:01:05 14° SSW 16:04:25 10° S daylight
12 Jun - 09:16:54 10° SSW 09:21:52 18° SSE 09:26:52 10° ESE visible
12 Jun - 11:08:05 10° SW 11:14:39 30° S 11:21:08 10° ESE visible
12 Jun - 13:01:03 10° WSW 13:07:36 30° S 13:13:55 10° SE daylight
12 Jun - 14:55:22 10° WSW 15:00:18 19° SSW 15:05:04 10° SSE daylight
13 Jun - 08:17:26 10° S 08:20:59 14° SSE 08:24:35 10° SE visible
13 Jun - 10:07:23 10° SW 10:13:38 27° SSE 10:19:54 10° ESE visible
13 Jun - 11:59:52 10° WSW 12:06:34 32° S 12:13:09 10° ESE daylight
13 Jun - 13:53:36 10° WSW 13:59:25 23° SSW 14:05:03 10° SSE daylight
14 Jun - 09:06:56 10° SSW 09:12:40 23° SSE 09:18:28 10° ESE visible
14 Jun - 10:58:50 10° SW 11:05:32 32° S 11:12:12 10° ESE visible
14 Jun - 12:52:07 10° WSW 12:58:28 27° SSW 13:04:39 10° SE daylight
14 Jun - 14:47:19 10° SW 14:51:04 14° SSW 14:54:45 10° S daylight
15 Jun - 08:06:53 10° SSW 08:11:44 18° SSE 08:16:42 10° ESE visible
15 Jun - 09:57:59 10° SW 10:04:30 30° S 10:11:03 10° ESE visible
15 Jun - 11:50:51 10° WSW 11:57:27 30° S 12:03:59 10° SE daylight
15 Jun - 13:45:05 10° WSW 13:50:13 19° SSW 13:55:15 10° SSE daylight
